Regional Weather Roundup
Issued by NWS

Home | Current Version | Previous Version | Text Only | Print | Product List | Glossary Off
Versions: 1 2 3 4 5 6 7 8 9 10 11 12 13 14 15 16 17 18 19 20 21 22 23 24 25 26 27 28 29 30 31 32 33 34 35 36 37 38 39 40 41 42 43 44 45 46 47 48 49 50

000
ASUS43 KBIS 050301
RWRND

NORTH DAKOTA REGIONAL WEATHER ROUNDUP
NATIONAL WEATHER SERVICE BISMARCK ND
1000 PM CDT MON MAY 04 2015

NOTE: "FAIR" INDICATES FEW OR NO CLOUDS BELOW 12,000 FEET WITH NO
SIGNIFICANT WEATHER AND/OR OBSTRUCTIONS TO VISIBILITY.


NDZ001>003-009>011-017-050400-
NORTHWEST NORTH DAKOTA

CITY           SKY/WX    TMP DP  RH WIND       PRES   REMARKS
WILLISTON      CLEAR     59  37  44 S16G23    30.04R
MINOT          CLEAR     60  29  30 S12       30.08R
MINOT AFB      CLEAR     54  29  39 S10       30.07R
$$

NDZ018>021-031>035-040>046-050400-
SOUTHWEST NORTH DAKOTA

CITY           SKY/WX    TMP DP  RH WIND       PRES   REMARKS
BISMARCK       PTCLDY    49  30  48 SE6       30.13R
DICKINSON      CLEAR     48  32  53 S13       30.08S
GARRISON         N/A     51  32  48 S7        30.10R
HETTINGER ARPT CLOUDY    51  32  48 SE10      30.11S
$$

NDZ004>008-012>016-024-026-027-054-050400-
NORTHEAST NORTH DAKOTA

CITY           SKY/WX    TMP DP  RH WIND       PRES   REMARKS
GRAND FORKS    CLEAR     56  27  32 SE7       30.16R
GRND FRKS AFB  CLEAR     49  28  43 S5        30.16R
DEVILS LAKE    CLEAR     55  34  44 SE7       30.15R
$$

NDZ022-023-025-028>030-036>039-047>053-050400-
SOUTHEAST NORTH DAKOTA

CITY           SKY/WX    TMP DP  RH WIND       PRES   REMARKS
FARGO          CLEAR     59  25  27 S3        30.17R
JAMESTOWN      CLEAR     53  25  33 SE8       30.15R
$$




USA.gov is the U.S. government's official web portal to all federal, state and local government web resources and services.